Theta_e
303 303 303 303 303 303 304 304 304 304 304 304 305 306 307 308 308 308 308 309 310 309 310 310 310 311 311 310 310 309 309 309 308 308 307 307 307 307 309 309 309 310 310 310 309 310 310 311 312 312 312 311 310 309 309 308 307 309 313 313 311 310 308 307 309 308 310 310 306 306 306 306 307 306 305 305 306 305 306 306 306 306 306 306 305 305 305 305
303 303 303 304 304 304 304 304 304 304 304 305 306 307 307 308 308 308 308 309 309 309 311 311 311 311 311 311 310 309 309 309 308 307 307 307 307 308 309 309 309 310 309 310 309 309 311 311 311 312 312 310 308 308 308 308 307 309 314 314 309 310 306 304 306 305 306 309 306 306 306 305 307 306 305 306 306 305 305 306 306 306 306 305 305 305 305 305
304 305 305 305 305 304 305 305 305 306 307 307 308 308 308 309 309 309 309 309 310 311 311 310 311 311 312 312 310 310 309 309 309 308 307 306 307 308 309 309 309 309 309 309 309 309 310 311 311 311 311 309 307 308 308 307 306 305 311 316 308 306 304 302 304 305 307 308 306 306 305 305 306 305 305 306 305 304 305 306 306 306 306 305 305 305 305 305
305 305 305 305 305 305 306 306 308 308 309 309 309 309 309 310 310 310 310 310 311 311 310 310 311 311 312 312 311 310 309 309 309 308 307 306 307 308 309 309 309 309 309 309 309 309 310 311 311 311 310 308 306 308 306 306 306 305 309 314 305 302 305 304 304 307 307 307 306 305 305 306 305 305 305 305 306 307 306 306 306 306 306 305 305 305 305 305
305 305 305 305 306 307 308 309 309 309 309 309 309 309 310 310 310 310 310 311 311 311 310 310 310 310 311 311 310 309 310 313 310 307 307 306 307 308 309 309 309 309 309 309 309 309 310 310 311 311 309 307 307 309 306 304 306 306 304 305 303 303 307 305 305 307 308 307 306 305 306 307 305 305 306 305 309 310 307 306 307 306 306 306 305 305 305 305
306 306 307 307 308 309 309 309 309 309 309 309 309 310 310 310 310 311 311 311 312 312 311 311 310 310 310 310 310 309 310 312 310 307 307 307 308 308 310 310 309 310 309 309 309 309 309 309 311 309 307 306 306 309 307 304 306 308 305 303 303 304 306 306 306 308 307 307 306 305 306 306 305 306 306 305 307 309 307 307 306 306 306 306 305 305 305 305
307 308 309 309 309 309 309 309 309 309 309 309 310 310 310 310 311 311 311 311 312 312 311 311 311 310 310 310 310 310 309 310 309 308 307 308 309 309 310 310 310 310 310 310 309 309 308 309 310 306 306 307 306 306 306 305 305 310 309 303 304 305 305 306 307 308 307 307 306 305 306 305 305 306 305 305 306 307 307 307 306 306 306 306 306 306 305 305
308 309 309 309 309 309 309 309 309 309 310 309 310 310 311 311 311 311 311 311 311 312 312 311 312 311 311 310 310 310 309 309 309 308 308 309 310 310 310 310 310 310 310 310 308 309 308 309 309 307 308 307 307 305 305 306 306 308 308 304 304 306 305 306 307 307 307 306 306 306 306 306 306 305 304 305 307 307 307 307 307 306 306 306 306 306 306 305
309 309 309 309 309 309 309 309 309 310 310 310 310 311 311 311 311 311 310 310 310 311 312 312 312 312 312 310 311 311 308 309 310 308 308 309 310 310 311 311 311 310 310 309 308 309 309 309 309 308 308 305 306 304 304 309 308 305 306 304 305 305 305 306 307 307 306 306 306 306 306 305 305 305 305 306 307 307 307 307 307 307 306 306 306 306 306 305
309 309 309 309 309 309 310 310 310 310 310 311 311 311 311 311 311 311 311 310 310 311 311 311 312 312 311 311 311 310 308 310 310 309 309 309 310 310 310 311 311 311 310 310 309 310 310 310 309 308 308 306 305 304 304 310 308 304 304 305 304 304 305 306 306 306 306 306 306 306 306 305 304 305 307 308 308 307 307 307 307 307 306 306 306 306 306 304
309 309 309 309 309 310 310 310 310 311 311 311 311 311 311 311 311 312 312 311 311 311 311 311 311 311 311 311 311 309 309 310 310 310 309 309 310 310 310 310 311 311 310 310 309 309 310 309 309 309 309 307 306 305 304 306 306 304 306 307 304 304 306 305 306 305 305 306 305 305 305 305 305 306 308 308 308 307 307 307 307 307 306 306 306 306 305 305
310 310 310 310 310 310 310 310 310 311 311 311 311 311 311 312 312 312 312 312 312 312 311 311 311 311 311 311 310 309 310 310 310 310 310 310 310 310 310 310 310 310 310 310 309 309 309 309 310 311 309 307 306 307 306 305 306 305 307 310 309 309 310 305 305 305 305 306 305 305 307 309 308 306 309 308 307 307 306 307 307 307 306 306 306 306 305 305
310 310 310 310 310 310 310 310 310 310 311 311 311 311 312 312 312 312 311 312 312 312 312 311 311 312 312 311 309 310 310 310 310 310 310 310 310 310 310 310 310 310 310 310 310 310 310 310 310 310 308 307 306 306 307 305 306 307 304 309 313 314 314 307 304 305 304 306 305 305 311 319 313 306 308 309 307 307 307 307 307 307 306 306 306 306 306 306
309 309 309 310 310 310 310 310 310 310 311 312 311 312 312 312 312 312 311 312 312 312 312 312 312 312 312 310 309 311 310 311 312 312 311 311 310 310 310 310 310 310 310 310 310 309 309 310 310 309 307 307 306 306 310 308 308 311 306 309 311 311 314 309 303 305 306 305 306 305 311 319 316 308 307 308 307 307 306 307 307 307 307 306 306 306 306 306
309 309 309 310 310 310 310 310 311 311 311 312 312 312 312 312 312 312 312 312 312 312 312 312 312 312 311 310 311 311 311 312 312 312 312 312 312 311 310 310 310 309 310 310 310 309 309 310 310 308 306 307 307 309 315 313 311 312 311 312 309 308 314 312 303 303 307 306 304 306 311 316 313 309 308 308 308 307 306 307 307 307 307 307 307 306 307 306
309 309 310 310 310 310 310 311 311 311 312 312 312 312 312 312 312 312 312 311 311 312 312 312 312 312 312 311 311 311 311 311 311 312 311 312 312 311 310 310 310 310 309 310 310 309 310 310 309 307 307 308 309 313 318 318 317 313 312 314 312 310 313 312 306 303 305 305 305 306 310 314 312 307 308 308 307 307 306 306 307 307 308 307 307 307 307 307
309 309 310 310 311 311 311 311 311 311 311 312 312 312 312 312 312 312 311 311 312 311 311 312 311 312 311 310 311 311 311 311 311 311 311 312 312 311 311 311 311 311 310 311 311 311 311 310 309 308 308 306 306 317 323 319 319 315 313 315 312 310 311 312 312 305 303 306 307 307 308 310 309 306 307 308 306 306 306 306 307 307 308 308 307 307 307 307
309 309 310 311 312 312 312 311 311 311 311 311 312 312 312 312 313 313 312 312 312 311 311 311 311 314 313 310 311 311 311 312 311 312 312 312 312 312 311 311 311 310 310 311 310 311 310 308 309 311 313 311 309 320 325 317 317 315 314 314 311 310 310 313 315 307 305 308 309 310 309 309 308 305 306 307 305 305 306 306 307 307 307 308 307 307 307 307
310 309 310 311 312 312 312 312 311 311 311 312 312 311 312 311 312 313 312 312 312 311 312 311 311 314 312 309 310 311 311 311 311 311 311 311 311 311 311 311 311 310 310 311 310 309 308 310 315 317 318 315 311 313 315 313 314 315 313 312 312 313 312 314 315 307 304 308 310 311 311 310 309 307 306 305 304 304 305 306 306 306 307 307 307 307 307 307
310 309 309 311 311 311 312 312 312 312 312 312 311 311 311 311 311 311 310 310 310 310 310 310 310 310 310 309 310 310 311 311 311 311 311 311 310 310 310 310 309 310 309 310 310 307 308 315 317 314 315 313 310 308 307 308 310 311 312 312 312 313 316 316 312 306 302 308 313 310 310 310 308 307 305 304 304 303 304 304 306 307 307 307 307 308 308 307
310 310 309 310 311 311 311 311 311 311 312 311 311 312 312 312 312 310 309 309 309 310 310 310 310 310 309 310 310 310 311 311 311 311 311 311 311 311 310 310 311 312 307 305 307 308 309 314 311 309 309 306 305 305 305 309 309 309 311 313 312 313 316 313 308 308 303 306 314 310 309 311 308 307 305 303 304 305 305 305 306 308 307 307 308 307 308 308
310 310 310 310 310 310 310 311 311 311 311 312 312 313 313 312 312 311 310 310 309 309 310 310 310 310 310 310 310 310 311 311 310 311 311 310 311 311 309 309 313 312 307 305 309 312 313 312 307 306 302 300 302 304 307 311 312 312 310 310 312 310 312 312 308 308 305 306 315 313 310 310 307 307 305 301 304 306 306 306 306 307 306 307 308 308 308 308
310 310 310 311 311 310 310 312 312 312 312 313 313 312 312 312 311 311 311 311 310 309 310 310 310 310 310 310 310 310 310 309 310 310 311 311 310 311 309 309 315 314 310 312 314 316 316 310 306 302 300 304 308 306 309 311 310 311 310 309 313 309 308 314 311 308 307 305 309 311 309 310 310 312 312 304 302 306 307 307 307 307 307 308 308 308 308 308
310 310 311 311 312 310 311 312 313 314 313 313 312 312 312 311 312 311 310 310 309 309 310 310 310 310 309 310 309 310 310 307 308 309 310 312 310 311 309 308 317 317 310 312 313 314 313 306 303 301 304 311 313 311 313 314 311 313 313 310 313 311 308 312 310 307 308 304 304 310 314 318 318 319 320 309 302 305 307 307 309 308 308 309 308 309 309 309
310 310 310 311 311 311 311 312 313 313 312 312 312 311 311 311 312 311 312 316 312 309 311 310 309 310 309 309 310 310 310 308 308 308 309 311 311 312 309 307 314 317 312 311 310 312 310 303 302 307 312 315 314 313 311 311 314 315 313 310 309 310 308 309 308 309 316 313 305 307 316 325 325 320 320 315 309 312 307 303 308 310 309 308 309 309 309 309
309 310 310 310 311 311 311 311 312 312 312 312 311 311 312 312 313 310 316 327 319 307 310 311 309 310 309 309 310 310 312 310 307 308 309 310 310 311 311 308 308 312 312 310 309 310 308 302 303 311 316 316 316 313 307 309 316 313 308 308 307 307 307 307 308 311 319 315 305 307 315 319 319 317 317 316 315 319 312 304 306 309 310 308 309 310 309 309
310 310 309 310 310 311 311 310 310 310 312 312 311 312 312 312 313 309 315 329 320 307 309 311 309 310 309 308 309 311 312 310 308 308 308 310 310 309 312 311 308 308 305 308 313 309 307 309 310 314 317 318 317 313 307 309 316 312 306 306 307 306 305 307 309 310 312 311 308 309 312 313 316 316 313 310 314 319 320 316 309 307 309 309 309 310 309 310
310 310 309 310 309 310 311 310 309 310 310 311 311 311 312 313 312 311 319 322 313 308 309 309 309 309 309 309 308 309 309 308 310 310 308 309 310 309 312 310 309 308 301 309 321 308 304 313 312 312 317 316 313 310 308 308 312 310 304 303 305 304 305 307 310 313 309 309 315 312 307 311 317 318 313 308 312 317 322 324 315 307 308 309 309 310 309 309
310 310 310 309 309 309 309 309 310 309 309 311 310 310 312 312 309 314 323 317 307 309 309 308 311 308 307 309 308 307 307 307 308 308 307 308 309 310 312 308 306 306 301 308 323 312 304 308 306 308 314 312 310 307 304 308 310 305 298 300 303 304 307 308 310 314 310 312 320 314 307 310 317 319 318 311 311 317 322 323 313 305 307 310 309 310 309 309
311 311 310 309 309 309 309 310 310 309 311 311 309 311 310 311 319 322 318 312 307 307 307 308 309 307 308 314 313 307 306 306 306 307 307 307 308 308 307 306 305 310 312 311 316 311 304 303 304 307 308 307 307 304 300 304 305 301 301 304 306 307 308 308 310 310 311 318 320 310 307 311 314 318 321 315 312 315 317 319 313 305 307 310 309 310 309 309
311 311 310 310 310 309 310 311 311 311 312 310 309 312 309 315 333 333 312 306 308 307 308 309 307 307 311 314 312 308 307 306 302 307 312 308 308 308 307 309 307 316 329 322 314 309 304 306 307 305 304 304 305 305 301 300 299 302 310 310 308 311 309 310 317 313 313 320 315 307 308 310 312 317 322 320 317 315 312 314 316 309 307 309 310 310 309 309
312 311 310 311 310 310 311 310 312 312 311 312 311 312 316 319 324 322 312 309 309 308 309 308 305 308 310 309 309 308 309 308 303 307 311 308 309 307 306 310 307 314 326 319 315 315 312 311 307 304 304 303 307 312 307 304 305 311 317 316 316 320 315 316 323 318 317 318 309 307 309 309 310 313 315 318 319 316 308 307 310 307 306 309 310 309 309 309
312 311 311 311 310 311 311 310 313 311 311 314 310 313 330 332 315 307 312 314 308 304 305 306 307 307 309 312 311 306 306 307 305 305 303 305 310 306 302 302 302 309 316 310 312 318 319 316 308 306 306 302 305 313 313 312 313 315 317 317 319 319 316 319 320 312 312 315 307 303 307 310 312 312 315 319 316 310 305 303 306 305 306 308 309 310 309 308
311 312 311 311 311 311 311 311 311 311 311 312 312 317 325 324 310 305 312 314 307 303 304 306 308 308 308 310 309 305 307 306 304 306 307 310 316 313 309 305 300 306 313 310 308 311 316 315 309 308 307 304 306 308 308 311 311 311 309 310 315 317 313 315 319 314 312 314 308 303 307 315 317 315 316 313 307 304 304 304 305 305 307 308 309 310 309 308
311 312 311 312 312 311 311 312 310 312 312 310 320 327 320 312 310 310 313 311 307 306 304 303 308 310 312 311 307 303 306 306 305 308 311 312 313 312 311 308 303 304 309 309 307 306 311 311 308 305 302 303 307 303 302 309 311 306 304 309 314 316 315 312 311 310 308 310 312 309 312 315 314 314 311 305 304 303 302 304 306 307 308 308 309 309 308 307
311 311 311 312 312 311 312 312 311 313 311 313 326 328 315 310 308 308 308 305 305 306 306 308 312 312 312 312 311 306 303 304 306 308 309 308 307 307 307 307 303 302 305 308 308 306 310 312 309 305 303 301 303 302 300 305 310 306 307 313 309 305 314 315 307 303 304 310 313 311 313 312 309 315 318 313 314 311 307 306 305 307 309 308 309 309 307 307
311 311 312 312 311 311 312 311 312 313 309 317 329 317 305 305 303 302 302 301 302 304 308 313 310 307 311 311 312 312 306 303 305 307 308 306 305 306 307 306 301 299 301 304 306 305 306 312 311 306 307 303 299 302 301 301 306 310 310 311 304 301 309 312 309 310 310 312 313 310 313 312 308 315 321 319 318 318 316 308 302 305 308 307 309 308 306 307
312 312 311 312 312 310 310 310 312 312 310 318 324 311 302 303 301 299 300 299 302 305 310 313 306 304 310 311 309 310 308 307 309 310 308 306 306 305 306 307 301 299 299 300 305 304 303 313 313 304 306 305 299 302 307 303 302 306 306 305 305 308 312 310 310 314 311 309 312 311 311 310 309 315 321 317 316 315 313 309 307 307 307 307 308 307 305 306
313 313 311 311 311 310 311 311 309 310 315 322 321 310 304 304 300 299 300 299 301 306 308 309 305 304 307 308 307 307 306 307 309 310 307 306 307 303 303 305 302 300 298 299 306 306 302 308 312 306 302 303 303 305 312 311 303 302 305 305 306 310 313 310 308 310 310 311 313 312 312 312 313 321 323 314 312 311 310 313 311 306 305 308 308 306 305 305
313 313 311 310 312 311 310 310 309 313 318 316 313 309 304 303 301 299 300 300 300 304 306 306 306 307 307 306 305 304 307 308 307 308 307 305 307 305 301 301 302 301 299 299 303 305 304 305 310 311 304 303 308 309 311 316 312 309 311 311 309 307 306 306 305 306 310 314 314 311 314 314 310 316 316 310 311 311 309 311 309 303 305 308 306 306 305 304
313 313 312 310 312 311 310 312 309 308 313 309 306 307 304 302 301 299 300 301 300 301 304 305 306 307 308 308 304 303 309 312 308 309 308 305 306 305 301 299 300 300 300 302 303 304 305 305 308 313 310 310 312 305 302 308 312 314 316 316 315 311 309 308 307 305 306 310 311 310 311 311 309 312 313 310 311 309 304 304 304 304 306 307 305 305 305 304
312 314 312 311 312 310 312 313 302 301 312 310 304 305 304 301 301 300 300 300 300 300 301 303 304 306 309 308 306 306 309 311 309 308 307 305 305 305 301 298 299 299 301 305 303 300 302 305 308 311 309 309 305 297 295 299 302 306 308 307 310 312 312 312 311 309 306 304 305 304 307 311 311 313 312 308 307 305 304 302 302 304 305 305 305 305 305 305
310 311 310 311 313 310 312 314 306 304 309 304 300 301 302 301 300 301 302 301 302 302 303 304 304 305 306 304 306 307 307 308 309 306 306 307 304 301 299 298 298 299 301 305 303 299 302 305 307 310 310 306 300 296 295 295 298 304 306 304 306 310 311 311 311 310 308 307 307 307 309 312 310 307 303 303 303 303 304 304 302 303 304 304 305 305 305 306
309 309 310 311 313 312 314 316 315 313 307 302 302 302 302 301 300 303 303 302 303 303 305 307 304 302 303 301 304 306 304 306 308 304 304 309 305 298 297 298 299 299 301 303 302 300 304 309 307 308 311 309 309 309 305 301 302 306 308 305 304 306 307 306 304 304 307 308 309 311 312 311 308 307 303 304 305 303 302 303 303 303 303 304 305 305 305 306
310 310 309 309 311 311 310 309 314 319 311 307 307 305 303 303 302 302 302 301 301 301 303 305 302 302 303 302 305 306 302 304 305 303 303 306 304 297 296 298 297 298 299 299 298 298 302 307 305 306 309 308 311 315 312 309 306 305 307 305 302 304 306 306 306 306 308 307 305 309 313 308 306 308 307 306 306 303 302 303 303 303 303 304 304 305 305 306
311 313 311 312 311 308 306 303 306 315 315 311 309 304 305 306 303 300 301 302 301 300 302 302 300 302 305 305 309 311 306 304 302 304 307 308 305 298 296 298 296 296 298 297 297 299 302 304 304 307 310 309 309 309 306 304 304 304 306 306 305 303 302 305 309 309 309 307 305 307 308 307 306 306 306 305 305 305 304 303 303 303 303 303 304 305 305 305
311 310 309 312 310 308 309 305 303 306 308 309 308 303 305 309 304 301 302 303 302 301 302 302 300 303 307 307 309 311 310 307 304 304 307 308 305 297 294 296 295 296 297 296 297 300 304 306 305 306 308 307 306 306 302 301 302 302 303 305 307 305 302 304 308 307 307 307 307 306 306 306 306 305 305 305 304 304 303 302 302 303 303 303 304 304 305 305
311 307 303 307 309 308 311 308 303 301 301 305 306 304 309 313 307 304 304 302 301 301 303 306 304 304 305 304 305 308 309 310 309 308 307 306 304 301 298 296 294 295 296 295 296 298 302 307 305 303 305 305 303 302 300 300 301 301 302 302 303 304 304 304 305 304 305 306 305 305 306 306 305 304 304 304 303 303 303 302 302 302 303 304 304 304 304 305
308 307 304 305 306 304 305 305 303 302 302 304 307 306 309 312 306 304 303 302 304 302 302 306 307 305 303 302 304 308 309 308 307 308 309 307 304 305 305 301 297 294 294 296 296 295 300 308 304 300 303 304 302 302 301 300 301 302 302 302 300 302 303 303 303 302 302 304 304 303 304 303 303 303 303 303 302 302 302 302 302 303 303 304 303 303 304 305
307 307 305 306 306 302 303 303 303 307 307 306 308 306 306 310 308 305 303 304 306 305 302 306 308 306 301 300 304 307 307 305 304 303 303 305 305 306 307 305 302 297 295 297 298 295 298 306 304 301 304 304 303 305 303 302 302 303 303 302 300 301 301 300 300 300 301 302 302 301 301 302 301 301 301 301 302 301 301 301 302 303 304 303 303 304 304 304
307 307 306 308 306 302 304 301 301 312 315 308 307 306 306 309 307 303 304 303 303 305 305 304 305 304 301 303 308 308 303 301 303 301 300 301 304 304 302 301 302 303 301 298 297 297 297 303 305 303 305 307 306 304 304 302 301 304 306 305 303 305 306 303 299 299 301 303 302 301 303 305 303 301 301 301 301 300 300 301 302 304 304 303 303 303 304 305
306 307 306 308 308 302 302 301 302 312 312 304 304 304 304 306 303 301 306 304 301 304 305 302 302 304 307 308 308 306 302 300 301 301 300 300 300 300 299 298 299 304 305 300 298 297 296 301 305 302 305 313 308 301 301 301 302 309 314 313 308 307 308 306 302 300 300 301 304 306 307 306 304 302 303 303 302 302 302 302 303 304 303 303 303 303 304 305
Wind_Speed
9 8 7 7 8 8 8 8 8 8 8 9 10 9 7 6 5 4 3 2 1 2 4 5 8 8 7 6 5 2 11 12 7 6 10 16 12 6 7 7 6 7 7 7 6 6 9 9 8 9 6 6 11 11 9 10 10 5 4 5 4 3 3 6 7 7 5 5 9 12 10 7 6 8 8 7 7 7 7 7 7 7 6 4 3 4 6 8
9 9 9 9 8 8 9 10 10 11 11 11 9 7 5 4 2 2 1 1 1 3 4 7 10 10 7 4 4 3 7 11 7 12 16 13 8 6 7 7 6 6 6 5 5 5 8 9 8 6 6 10 12 9 8 10 12 7 3 5 3 4 3 4 9 10 6 8 13 12 10 8 9 11 10 5 5 6 5 6 8 9 6 5 5 5 7 9
11 10 10 10 10 11 12 13 14 14 12 10 8 6 4 3 2 2 1 1 1 2 6 9 13 14 7 1 3 5 5 10 9 14 16 11 7 7 7 7 6 6 5 5 5 5 7 8 6 5 10 14 12 11 11 11 10 6 4 5 2 5 3 2 11 12 8 14 16 13 10 8 10 12 8 4 5 5 6 8 9 9 6 3 4 5 7 11
12 12 12 13 14 15 15 16 15 13 11 9 7 6 6 6 5 5 4 4 2 3 7 10 12 14 6 6 7 6 3 10 14 17 13 9 7 7 7 7 6 5 5 5 5 6 7 7 6 7 13 13 11 12 11 11 7 5 4 3 4 7 4 2 11 9 9 18 17 13 10 7 11 10 6 6 4 5 10 11 9 8 4 2 4 5 9 12
13 14 14 15 16 16 16 15 13 12 10 9 8 8 8 7 7 5 4 2 3 5 7 10 12 12 9 9 8 4 1 4 12 15 10 9 7 7 7 6 6 6 5 6 7 8 8 7 8 9 12 9 9 9 8 11 9 7 4 2 3 5 3 4 10 10 14 18 14 13 9 8 11 8 9 10 6 6 10 10 9 7 5 5 5 6 10 13
14 14 15 16 16 16 15 14 12 10 9 8 8 8 8 7 7 6 5 4 5 3 6 8 15 17 15 13 8 4 6 4 11 13 9 9 7 7 7 6 6 5 5 5 5 7 7 6 9 9 10 7 9 7 7 9 7 6 3 4 4 4 6 8 10 13 18 18 14 13 9 9 10 6 10 15 15 12 9 9 10 9 8 8 8 8 11 14
14 15 16 16 16 15 13 11 9 8 7 8 8 9 10 10 10 9 7 5 3 4 7 8 15 18 19 17 12 14 20 14 14 12 9 9 8 6 6 5 5 5 4 3 2 4 4 6 13 14 10 6 8 8 11 16 14 9 3 4 6 8 11 9 12 16 17 17 15 13 9 8 9 6 6 15 22 17 11 11 12 11 10 9 9 10 12 15
15 16 16 15 14 12 10 8 8 7 7 8 9 12 13 13 13 12 11 9 5 7 9 8 9 8 11 14 15 24 28 20 16 12 9 10 8 6 5 4 6 4 3 3 4 5 7 12 17 14 9 5 7 7 9 16 15 9 3 3 8 10 10 10 13 15 12 13 12 9 8 8 9 7 7 17 22 16 14 14 13 12 11 10 10 11 14 15
16 15 14 12 10 9 8 7 8 8 8 9 12 15 16 17 17 18 19 17 14 9 9 7 3 4 7 11 17 22 21 18 15 12 9 9 8 7 5 6 7 5 5 7 8 8 7 11 11 9 11 9 9 6 4 6 6 4 5 7 9 8 9 11 11 11 9 9 8 7 8 7 7 6 11 21 21 16 17 15 14 14 13 12 12 13 14 15
14 12 10 8 7 7 7 8 9 9 11 13 16 17 18 20 22 23 23 22 21 18 12 6 3 6 9 15 21 15 12 15 13 11 10 9 7 6 5 7 6 3 3 4 5 3 3 11 16 20 21 14 10 9 8 6 6 10 14 15 12 8 8 9 8 8 6 7 8 7 7 8 5 2 9 19 16 16 19 17 17 16 16 15 13 13 14 15
10 8 7 7 7 7 8 9 10 11 14 17 18 19 21 23 22 21 20 20 21 22 22 20 17 16 16 24 28 15 9 14 13 11 9 4 4 7 9 12 9 5 4 9 14 12 15 21 21 17 13 13 14 14 14 13 14 16 18 14 9 6 6 4 5 5 4 3 7 5 6 9 3 2 13 19 12 16 21 20 19 18 18 17 14 13 14 16
8 8 8 8 8 8 8 9 10 12 15 17 18 20 20 18 15 14 14 14 15 16 17 18 20 21 24 31 29 16 12 17 16 14 10 5 9 14 16 17 14 12 9 18 25 21 19 13 7 7 11 15 11 9 13 15 15 14 12 7 7 7 3 2 3 2 2 1 4 2 6 8 5 10 21 18 12 16 21 22 21 20 20 19 16 15 16 17
11 11 10 10 9 9 8 8 9 10 12 14 16 17 15 12 11 13 14 14 14 15 16 18 19 19 25 27 21 15 15 19 19 19 18 14 15 16 15 13 11 10 6 12 17 12 10 4 7 20 21 15 7 8 14 12 12 9 7 5 4 6 5 5 2 2 2 1 2 2 3 7 7 18 24 18 15 16 21 25 23 21 21 21 19 17 18 19
14 13 11 10 9 9 9 9 9 10 11 13 15 13 9 7 8 9 11 12 13 14 16 21 22 24 30 23 15 17 17 17 19 23 23 18 17 17 15 14 15 15 12 15 17 16 16 13 19 26 22 17 17 17 12 7 7 4 4 4 3 2 4 5 3 2 2 2 3 5 2 7 8 15 16 15 17 17 21 27 25 24 22 22 21 19 20 20
16 14 11 9 9 9 9 9 10 11 12 14 14 10 6 6 7 8 9 9 10 12 13 13 14 21 29 21 14 16 13 13 17 20 20 17 17 20 19 18 21 22 22 24 24 23 21 19 23 23 19 20 19 11 5 4 4 4 2 2 3 1 4 7 4 6 4 2 5 5 3 6 10 15 11 7 15 19 23 27 26 26 24 23 23 21 22 21
14 13 12 10 9 9 10 10 10 11 13 12 10 6 4 7 10 11 12 12 13 12 14 15 15 19 20 13 11 12 10 11 14 13 13 14 16 19 19 19 22 23 24 25 22 20 18 19 24 20 14 13 8 5 5 4 4 4 3 2 2 1 3 5 3 6 6 2 3 4 3 5 8 8 3 3 10 16 23 27 27 28 27 24 24 23 23 22
13 12 12 11 9 10 10 10 11 11 11 9 7 5 6 10 10 8 10 13 13 11 13 16 16 19 16 8 9 11 11 11 8 6 8 11 12 15 15 16 19 19 17 16 12 10 12 14 14 10 8 7 2 4 5 4 3 3 2 1 2 2 2 4 3 2 3 3 3 3 4 9 12 12 17 19 16 16 22 28 29 28 29 27 24 24 24 23
11 11 11 12 12 12 11 10 11 10 10 9 8 6 6 7 3 3 6 5 4 5 8 10 7 9 11 9 8 10 10 8 6 5 5 6 6 7 7 8 10 8 7 7 6 7 10 9 7 3 5 5 4 5 4 2 3 2 0 1 2 2 3 4 3 1 2 1 3 2 5 13 16 18 28 29 19 17 24 28 29 29 29 28 25 25 26 25
9 9 9 11 14 16 15 13 13 12 12 11 12 14 14 16 15 15 15 11 9 6 5 11 11 6 5 8 12 11 8 6 6 5 5 5 4 3 3 3 3 2 4 5 7 10 8 5 6 4 3 3 2 3 5 5 5 5 4 3 2 2 4 5 5 3 0 1 5 6 7 13 15 16 24 26 16 15 22 23 26 29 29 29 27 27 27 28
7 8 8 11 13 15 17 18 18 17 16 18 20 19 17 20 20 18 25 29 26 18 12 15 18 13 9 9 11 11 10 8 5 5 5 5 5 5 6 4 4 7 7 2 4 9 8 6 5 1 3 5 5 3 5 3 4 5 4 2 2 2 4 4 2 4 2 1 6 5 6 11 15 15 21 23 15 13 19 20 22 26 28 29 29 29 29 29
4 5 8 11 12 11 12 15 19 20 21 21 15 6 4 7 9 10 21 28 26 23 20 19 18 17 16 13 10 9 11 12 9 6 4 1 2 3 7 6 7 8 7 3 2 6 9 7 2 4 6 3 3 3 5 4 5 4 3 1 2 2 5 4 1 4 3 0 4 2 4 12 14 14 18 18 10 11 14 15 19 22 23 26 27 30 30 29
3 4 6 9 9 9 9 11 14 17 18 13 5 4 9 14 16 18 20 19 19 22 21 20 19 18 17 16 13 10 12 14 14 14 9 7 6 4 8 11 7 4 6 5 3 5 7 4 4 5 4 5 4 4 6 5 5 3 2 1 2 2 4 5 2 3 3 0 4 4 6 13 14 11 15 14 9 12 12 12 17 18 20 22 23 26 28 28
4 4 6 6 7 6 5 6 12 17 14 9 7 12 19 20 20 20 18 14 14 18 19 18 19 17 14 14 12 12 15 12 12 16 14 12 13 12 12 11 6 2 6 6 3 3 5 1 3 2 7 7 6 4 6 5 3 2 3 2 3 2 1 3 3 4 2 1 4 5 5 10 10 8 9 8 7 11 13 13 17 17 19 21 20 23 25 27
6 6 6 6 8 8 7 7 9 14 15 13 14 17 19 18 15 13 11 9 8 11 15 15 18 18 14 13 11 10 16 14 12 15 14 10 10 9 9 6 5 4 3 5 6 6 4 1 1 5 4 6 6 5 5 3 1 2 2 3 2 3 2 4 4 4 3 1 2 4 5 6 5 5 6 5 4 10 11 12 17 18 18 20 19 21 23 26
6 6 7 7 8 10 10 11 12 15 18 19 19 17 15 11 9 7 5 5 4 7 11 9 12 15 14 13 9 5 10 13 14 16 15 11 6 4 6 4 4 3 2 1 5 5 3 1 2 3 4 6 7 4 2 4 1 4 2 4 4 4 4 5 4 4 4 2 1 3 4 5 5 5 8 6 6 9 10 11 17 18 17 18 19 20 21 23
6 6 7 8 9 10 12 12 13 16 17 17 17 12 7 2 6 7 3 4 3 6 8 7 6 10 13 15 10 2 4 7 10 14 14 13 8 4 5 3 3 3 4 4 3 2 1 2 2 3 5 6 6 2 1 4 4 2 2 4 4 3 2 3 2 3 2 2 3 4 3 5 7 7 9 5 6 10 11 11 16 18 17 18 19 19 19 21
4 4 6 7 9 11 10 10 13 15 14 13 12 8 5 4 5 6 4 5 4 4 5 5 5 7 10 14 12 4 1 5 4 11 13 11 9 5 3 3 2 2 2 4 3 1 2 3 6 5 6 6 4 1 3 5 5 1 2 4 4 3 4 3 3 3 1 3 4 4 3 2 5 7 7 4 6 10 10 9 12 14 14 15 16 17 17 18
2 3 5 6 9 10 9 8 11 14 13 12 12 11 9 7 5 3 3 4 3 3 4 4 4 6 6 10 14 9 4 5 2 7 11 8 8 7 5 2 3 1 1 5 3 1 1 2 3 3 5 3 1 2 5 6 2 3 3 4 3 3 4 3 4 3 1 3 4 3 2 0 6 7 5 4 4 8 9 9 10 11 11 11 12 13 15 17
6 4 5 6 7 8 7 6 7 11 11 10 10 11 9 5 3 2 5 3 3 2 2 4 4 7 8 5 12 14 9 8 6 6 8 6 5 6 6 3 5 3 1 4 4 3 1 1 2 4 4 1 3 3 5 4 1 1 5 4 3 3 3 3 4 2 2 3 4 4 1 0 5 6 5 2 3 6 8 8 9 12 11 10 11 13 15 17
7 6 5 5 6 6 6 6 7 8 8 7 8 9 5 1 2 4 3 0 2 2 3 5 4 9 11 5 8 13 8 7 9 8 7 8 7 7 8 4 4 4 2 4 3 3 1 1 2 3 2 3 2 1 1 2 2 5 5 3 3 3 3 3 2 3 3 2 6 5 1 1 3 6 5 4 4 6 7 7 9 12 12 10 10 14 16 18
7 6 5 4 6 6 6 7 7 6 6 7 9 8 5 2 4 6 2 2 1 3 4 4 3 6 9 4 3 9 6 6 11 10 7 7 8 9 8 3 4 5 4 6 3 3 2 1 2 2 3 2 2 2 2 3 4 5 3 2 2 3 3 3 5 4 2 4 5 4 2 1 2 6 6 6 7 6 7 7 9 11 13 11 10 15 18 19
8 7 5 4 5 5 5 7 7 7 5 7 9 7 4 2 4 3 1 3 2 2 2 1 2 3 4 3 3 5 4 5 9 8 4 3 5 6 5 1 1 4 4 3 3 4 1 2 2 1 1 1 2 1 3 3 3 4 4 5 4 4 4 3 4 2 1 5 3 1 2 2 5 9 10 11 13 10 11 12 12 12 15 14 13 16 19 21
11 10 7 5 5 4 5 7 7 6 4 6 8 4 5 5 1 2 3 3 1 2 1 1 3 2 1 3 4 4 2 2 6 5 2 1 4 3 2 1 2 2 1 1 2 5 3 4 4 2 0 3 4 2 2 3 4 4 3 4 3 2 4 3 4 2 4 5 3 1 2 3 5 7 10 12 14 14 13 13 14 16 18 17 15 17 20 22
12 11 8 7 7 5 5 6 6 5 3 6 7 3 6 4 1 1 2 3 1 2 1 1 3 3 2 3 3 3 1 1 4 4 3 3 4 3 4 3 2 3 2 2 1 2 2 4 3 1 1 4 3 3 2 2 2 1 2 4 3 3 2 3 4 2 4 6 5 3 1 3 3 5 8 11 15 18 17 16 17 19 18 16 16 18 21 23
11 11 9 9 8 5 4 4 5 4 5 6 5 5 4 1 2 2 2 4 1 2 1 1 3 4 4 3 3 2 2 2 3 4 4 4 2 0 2 3 3 3 3 2 1 1 2 4 5 2 2 2 2 0 2 4 3 1 2 3 1 3 4 1 3 4 1 3 4 3 3 5 4 9 11 9 12 15 13 13 13 14 14 14 17 19 21 22
11 11 10 9 8 6 4 3 4 5 7 7 6 6 2 3 1 2 1 2 1 0 1 2 4 5 3 4 4 4 2 1 3 3 3 2 1 2 1 2 1 2 3 2 1 0 2 5 5 3 3 4 3 1 2 3 1 1 2 1 2 3 5 3 1 0 3 1 4 2 4 6 4 8 10 7 7 8 7 7 10 12 13 14 17 19 21 22
10 12 12 11 9 7 5 3 4 7 7 5 6 2 2 1 1 1 1 2 1 1 3 1 2 3 1 2 4 5 3 2 2 2 1 1 1 3 1 2 2 1 1 2 1 1 1 4 5 1 1 3 3 3 6 5 2 2 1 3 2 2 4 4 0 4 4 1 4 2 5 7 3 4 7 8 7 8 8 8 12 14 15 15 17 19 21 21
7 11 15 15 11 8 6 5 6 8 7 6 6 2 1 0 0 1 1 2 1 2 5 2 1 1 1 1 3 5 4 3 3 3 1 1 0 3 2 1 1 0 1 1 1 0 2 2 6 1 2 2 2 3 4 6 4 2 3 3 2 1 1 1 0 1 2 3 5 5 6 5 3 4 6 6 6 8 9 8 9 12 15 16 18 21 22 21
4 6 14 17 12 9 8 6 6 6 5 6 3 2 0 0 0 0 1 2 1 2 3 1 1 2 2 2 1 3 3 2 2 2 1 0 1 2 2 1 1 0 2 1 2 0 2 0 4 3 1 2 3 1 2 2 4 4 3 2 2 2 4 1 1 2 1 2 4 5 5 4 6 6 5 8 9 8 9 8 7 11 16 18 21 24 25 24
3 4 11 16 11 9 7 7 7 6 6 4 3 2 0 1 1 1 1 2 1 2 1 2 1 1 2 2 1 1 1 1 1 0 0 0 1 2 1 1 2 1 1 1 2 1 2 2 3 5 3 2 2 2 5 4 2 2 1 1 1 1 2 1 0 2 3 2 2 3 5 7 8 5 6 10 11 8 8 7 8 14 18 21 24 26 27 25
3 3 10 14 10 8 6 8 10 8 6 2 2 1 0 1 2 1 2 2 2 2 2 4 3 2 2 1 1 1 0 1 0 1 1 1 1 1 1 1 2 2 1 1 1 0 0 2 3 4 4 2 5 4 3 4 5 4 4 4 3 3 3 1 3 2 2 2 4 2 4 10 8 3 6 10 8 8 9 8 10 17 22 24 27 28 28 26
8 4 10 13 8 6 6 8 9 6 4 3 2 2 1 2 2 2 2 1 1 2 2 2 2 2 2 1 1 2 1 1 1 1 1 3 2 1 1 2 2 2 3 1 1 1 1 3 0 5 5 5 5 3 1 2 3 3 2 3 4 4 5 4 3 3 0 1 1 3 2 10 8 5 6 7 7 9 12 10 14 21 25 27 30 31 29 27
14 10 12 12 6 6 8 6 6 5 4 3 2 3 2 1 2 1 1 1 1 1 1 0 0 1 1 1 1 1 1 2 2 2 1 3 2 2 2 3 2 2 2 1 1 0 1 2 1 5 5 4 4 4 2 1 2 1 2 2 4 3 4 5 5 4 2 3 2 2 3 10 8 4 6 7 8 11 15 15 17 23 28 31 32 33 31 29
17 17 19 15 5 4 6 4 2 2 2 1 3 4 3 2 3 2 1 1 1 1 1 1 1 1 1 1 2 1 1 1 1 1 0 2 2 2 1 2 1 1 1 1 1 2 1 1 1 3 7 7 6 6 5 3 0 3 3 1 2 4 6 4 3 3 2 5 7 4 5 10 7 1 3 7 7 11 18 21 20 22 29 34 35 35 33 31
9 12 20 22 14 11 10 5 5 5 1 2 4 4 3 3 4 4 2 2 3 2 1 2 1 1 1 2 2 1 1 1 1 2 2 1 3 1 0 2 2 1 1 2 3 3 2 2 2 1 2 4 6 6 4 3 2 2 1 2 2 4 7 3 2 3 3 4 6 6 7 10 11 11 11 10 8 11 18 24 25 25 30 34 35 36 35 32
4 4 9 16 20 22 19 12 8 6 3 3 3 3 2 2 2 3 3 2 2 2 1 1 1 2 2 2 2 2 2 1 1 1 1 3 3 2 1 3 3 3 2 3 4 3 1 1 4 6 6 7 8 9 4 1 1 5 4 4 4 5 5 5 4 3 5 3 3 9 12 12 18 20 18 15 12 13 16 21 26 29 32 35 36 37 36 33
6 3 4 6 11 16 18 17 14 7 3 2 2 1 2 2 3 2 2 1 1 1 1 0 0 1 0 1 2 2 2 1 1 1 2 4 4 3 2 4 3 3 3 4 4 2 3 2 5 8 10 11 12 11 4 3 5 9 8 6 6 6 6 7 6 7 5 4 7 12 8 8 17 20 17 17 15 14 16 22 28 32 35 38 38 37 36 33
8 4 5 5 4 4 6 11 13 11 7 3 2 1 2 3 4 2 1 2 2 1 2 2 1 0 2 2 1 1 3 3 2 2 2 2 3 3 3 2 2 2 1 3 2 3 3 4 4 4 8 10 11 13 7 3 7 7 8 12 8 7 9 12 14 10 8 6 13 11 5 8 16 19 18 19 17 17 22 29 34 36 39 39 38 36 35 34
11 8 8 9 7 3 3 4 5 9 9 5 3 2 3 3 4 3 1 1 3 2 2 2 4 4 2 2 1 0 2 3 4 4 1 1 3 2 3 3 1 1 1 2 1 1 2 3 2 1 7 9 10 13 7 4 6 6 11 14 8 9 13 15 14 10 8 12 19 17 14 16 19 20 20 25 29 29 31 33 34 36 38 38 36 35 35 35
12 10 8 10 11 8 7 5 3 5 6 5 4 2 1 2 2 4 1 1 2 2 2 1 4 4 1 0 1 2 4 2 4 6 1 0 3 1 2 2 2 2 2 2 1 1 2 3 1 3 5 8 6 7 4 3 5 7 13 14 7 9 11 11 10 7 6 13 17 14 13 16 21 21 19 26 32 30 27 29 31 34 36 34 34 35 36 38
14 11 8 8 7 7 7 5 3 4 4 4 3 0 1 1 1 3 2 2 2 2 2 1 2 2 1 2 1 6 7 4 7 9 5 4 5 4 3 2 3 3 1 1 0 1 2 3 3 5 5 7 3 6 8 6 5 6 15 15 7 7 7 7 7 6 8 9 8 5 6 10 14 14 14 21 25 22 23 25 26 33 36 33 33 37 39 39
16 12 9 8 4 5 7 5 4 5 2 2 0 1 2 1 2 1 1 1 1 1 2 2 1 1 2 3 4 7 7 7 8 9 8 9 10 8 6 5 2 4 4 3 1 0 3 1 2 4 3 6 5 7 9 8 6 6 10 8 5 6 5 4 5 8 10 7 3 4 7 8 9 10 13 18 19 19 24 23 22 31 40 39 37 38 38 36
Wind_Direction
120 123 125 126 126 126 125 124 127 130 128 121 118 115 114 120 127 128 124 119 110 350 355 345 336 335 322 307 278 12 44 36 37 67 52 33 26 51 78 81 91 103 111 110 110 121 127 121 115 112 114 88 74 71 62 47 42 63 92 76 113 165 191 181 177 182 153 152 176 176 176 154 147 163 150 140 156 171 180 187 201 216 221 229 250 280 294 298
120 121 123 124 123 122 118 117 117 115 114 111 108 107 107 108 106 110 134 195 304 347 19 355 339 343 333 302 246 181 51 34 58 64 47 30 34 76 81 80 88 96 104 104 104 119 138 132 116 125 119 82 65 62 66 42 38 57 93 85 127 202 192 174 173 170 147 155 171 171 173 163 155 162 156 159 203 201 213 217 223 235 241 237 234 260 285 293
114 114 115 117 117 116 114 112 110 108 106 103 101 98 87 72 54 68 103 160 140 66 22 356 343 348 353 173 170 160 57 34 47 39 35 39 59 87 84 79 82 91 90 84 96 117 143 134 116 124 103 80 57 62 61 36 35 38 62 90 198 205 156 147 168 167 162 161 162 161 169 172 164 164 167 186 205 225 237 224 228 237 243 228 216 252 282 290
107 107 109 111 112 112 111 109 105 103 100 96 95 87 82 77 71 80 93 127 133 25 18 13 357 357 23 136 141 154 90 41 31 20 29 50 75 99 86 79 78 80 75 78 96 111 126 123 129 120 91 70 47 62 44 24 45 36 52 114 187 167 121 132 168 165 163 162 159 157 160 173 177 179 200 192 173 253 240 220 225 233 246 251 222 259 284 287
104 105 107 109 110 109 107 104 100 97 93 87 84 79 80 74 69 71 65 72 338 5 51 43 27 33 71 113 126 157 190 34 12 15 39 56 83 103 87 82 75 74 75 88 99 106 116 125 137 105 77 54 33 57 28 23 68 62 33 101 143 159 120 135 165 163 160 160 157 156 157 176 183 201 222 201 180 233 239 222 227 239 261 273 246 260 279 281
106 106 108 109 108 106 102 99 94 88 82 78 78 75 74 68 62 50 26 355 343 42 104 68 56 67 77 86 102 111 99 64 359 15 47 62 86 97 85 80 67 68 76 87 98 110 123 137 134 91 73 59 39 60 34 29 82 93 40 48 77 144 129 143 163 161 162 162 164 167 171 182 186 227 234 217 221 238 246 225 230 246 256 261 255 260 274 278
109 109 109 108 105 102 97 91 84 76 73 77 78 78 79 75 68 57 42 17 11 122 137 93 77 78 78 86 103 88 72 48 12 25 53 65 79 83 76 71 60 58 73 76 63 119 138 131 116 93 84 78 63 77 64 62 80 96 90 42 73 111 121 145 159 160 169 170 172 175 181 194 196 226 245 231 238 243 238 230 237 247 248 254 258 263 274 276
111 111 109 107 103 97 89 80 74 73 78 82 86 91 91 85 78 71 66 58 68 138 154 126 97 76 77 92 91 70 50 24 16 39 60 64 66 69 67 66 59 45 67 78 74 111 126 116 109 91 76 80 93 98 78 71 62 64 104 82 88 102 117 142 153 161 174 175 176 181 196 218 215 235 269 248 246 238 222 233 244 244 246 252 257 264 272 272
110 111 109 105 99 89 81 77 79 83 86 93 100 100 96 88 82 76 72 71 74 104 160 170 138 72 87 96 81 61 34 13 20 41 62 63 50 44 53 64 59 56 80 95 108 114 117 111 111 114 111 105 96 80 62 76 42 49 104 103 100 96 116 138 152 162 174 186 187 199 220 236 234 263 276 257 248 232 223 234 242 243 244 249 256 261 268 268
112 111 108 102 94 87 86 88 91 92 95 104 108 105 99 91 85 78 73 73 75 83 99 116 132 114 109 93 81 64 23 25 35 46 56 51 44 38 51 64 54 65 90 113 136 144 143 119 112 115 111 96 79 56 48 86 107 104 99 93 93 98 118 139 158 166 178 209 204 209 238 247 245 265 266 265 251 222 225 233 240 242 240 247 257 260 265 265
113 110 106 100 95 94 96 101 101 100 108 110 109 108 104 97 88 77 69 69 71 76 81 87 93 100 102 86 78 70 36 46 53 55 55 40 56 56 64 71 67 83 110 113 109 103 111 114 112 109 95 89 85 68 71 98 110 106 102 85 57 77 109 142 161 169 181 226 219 226 282 267 254 199 249 269 263 224 225 232 239 240 237 246 257 260 264 266
112 109 104 100 100 101 104 113 113 111 117 114 114 114 105 94 79 62 57 63 66 67 72 83 87 89 89 76 68 68 59 61 62 60 64 67 72 72 77 81 80 80 89 103 103 107 113 112 113 110 107 113 102 72 90 106 104 94 96 76 9 33 52 219 165 199 225 292 252 254 314 279 226 229 248 264 266 238 228 230 238 239 237 242 253 260 264 268
107 103 102 101 102 103 107 115 121 124 125 122 125 120 104 83 63 54 61 69 76 75 72 80 87 94 87 71 66 81 77 71 69 65 64 68 79 81 81 81 74 75 86 105 104 108 115 126 130 115 111 111 103 114 119 107 95 76 58 68 17 14 342 245 188 294 237 287 285 136 304 283 239 239 250 258 257 242 229 230 236 238 238 241 250 260 264 270
95 95 99 105 107 109 111 113 119 126 130 132 136 125 99 72 54 58 68 71 81 84 81 81 82 88 87 83 89 92 84 79 72 65 62 62 76 79 76 75 71 79 92 96 95 95 106 125 123 108 98 100 110 118 110 68 70 63 18 41 43 22 294 259 211 176 176 258 199 137 247 271 269 269 274 267 249 236 229 232 235 239 240 241 249 256 263 271
88 87 90 101 111 117 120 118 119 127 131 133 137 127 97 68 59 68 73 73 83 85 86 85 79 84 86 88 101 98 93 86 71 64 60 54 66 74 75 77 78 83 88 89 94 100 110 118 107 94 92 105 114 110 69 19 35 45 56 346 351 159 279 294 239 189 184 237 178 152 258 269 278 288 299 266 237 230 233 237 237 240 243 243 248 253 262 270
86 83 83 92 106 117 123 122 121 128 135 139 138 127 98 92 85 85 90 90 91 89 88 85 82 86 85 83 94 101 96 80 68 60 55 51 62 74 77 82 88 91 92 93 99 103 106 101 92 88 95 104 101 80 56 36 6 7 96 197 266 180 299 312 266 211 198 193 194 195 254 280 277 272 262 235 244 235 237 244 242 242 245 245 248 252 259 266
87 85 85 86 96 111 117 124 130 134 137 140 134 117 114 113 94 81 100 100 91 86 83 84 82 75 71 80 87 78 73 72 71 55 50 59 66 77 86 92 95 94 93 96 100 101 92 88 92 86 76 75 51 77 67 29 337 321 42 101 237 212 264 297 311 267 180 182 246 225 230 262 267 266 270 278 280 260 248 250 248 246 247 247 249 251 256 262
90 92 95 92 94 102 109 121 132 140 137 131 122 107 116 132 113 80 126 138 93 72 66 64 74 69 57 60 66 60 67 74 73 61 54 60 63 75 89 101 101 88 81 85 66 64 72 75 98 95 41 37 18 66 94 194 191 203 190 85 281 255 239 260 283 299 127 188 249 239 249 263 270 277 279 283 285 266 257 256 254 253 250 249 249 251 255 260
92 95 106 111 103 97 102 112 119 130 131 125 117 109 105 101 91 86 89 87 75 78 66 45 54 96 85 60 66 67 71 74 67 71 78 70 61 61 79 119 137 51 48 69 29 31 55 62 68 61 6 349 338 88 138 183 167 157 167 165 186 251 258 240 248 276 76 255 252 232 245 267 279 284 284 289 290 267 263 264 260 256 252 250 249 252 254 258
97 97 117 134 126 108 104 108 114 122 123 122 119 112 102 90 80 73 72 73 73 78 86 72 70 88 91 74 79 77 66 67 69 79 93 89 80 65 63 97 110 57 44 51 360 22 57 69 48 64 236 259 259 195 142 131 121 118 116 129 182 220 280 263 263 318 5 264 261 242 252 272 275 277 279 288 293 271 264 264 262 259 256 253 250 253 255 259
116 118 132 144 147 139 130 124 123 123 126 130 127 106 79 81 83 84 78 73 71 74 77 76 75 74 70 67 79 89 78 72 68 65 71 123 136 51 49 70 80 54 15 355 50 35 61 76 358 256 221 233 257 167 128 101 81 80 113 105 301 223 259 265 216 326 4 53 272 314 316 279 271 270 276 284 283 267 264 262 268 270 266 261 256 256 259 261
168 161 161 157 157 156 157 163 157 148 145 150 150 91 101 105 102 98 91 81 70 68 68 69 70 67 63 62 67 85 85 68 54 53 62 84 97 84 66 66 65 38 349 8 64 23 50 74 301 269 174 102 59 95 106 94 84 67 103 106 311 260 269 287 310 333 9 124 275 341 335 285 277 274 276 278 262 265 276 271 274 278 275 271 265 263 264 265
206 185 172 163 158 152 139 161 182 184 184 180 153 126 113 106 100 92 91 92 74 58 57 60 59 55 53 50 51 67 72 55 30 36 49 71 82 80 79 72 61 36 8 29 102 67 61 23 315 171 151 105 59 51 77 78 86 89 92 112 270 299 351 288 312 333 338 210 275 304 302 282 289 296 282 273 263 281 291 283 280 278 275 278 278 273 270 268
221 201 185 161 143 142 123 117 157 182 183 168 150 138 119 104 97 90 85 93 81 49 47 50 44 41 39 32 31 54 63 53 28 26 32 55 79 73 72 75 68 67 16 39 89 101 100 280 356 107 122 103 85 44 66 93 333 317 130 143 242 283 229 230 279 322 319 317 290 312 313 289 307 324 288 282 307 300 298 292 285 279 277 280 280 276 270 269
236 218 202 183 159 152 144 134 137 150 157 156 154 144 125 102 70 54 55 79 67 19 26 37 32 29 21 14 17 54 64 53 33 22 27 42 60 85 78 71 67 82 215 136 79 88 79 282 201 123 55 69 89 54 76 144 335 321 231 191 217 238 242 269 307 349 16 360 311 13 357 294 313 314 273 292 337 307 302 298 283 280 281 275 272 274 274 274
248 230 207 193 180 169 164 160 154 152 153 156 159 153 139 89 24 19 23 68 44 342 4 22 22 18 10 5 6 86 76 37 23 18 27 36 36 109 101 39 54 95 180 168 95 103 69 36 127 117 72 57 60 46 211 137 95 12 238 193 190 172 191 267 338 46 47 281 290 56 104 259 311 304 269 302 333 299 301 296 276 277 281 271 268 274 277 279
241 220 197 190 184 178 179 181 181 182 181 180 187 197 223 275 348 355 360 48 21 327 357 7 9 12 9 10 18 95 85 337 356 14 24 35 34 88 111 10 59 87 162 139 64 64 210 18 32 47 65 64 47 349 213 139 106 297 233 144 149 146 179 199 95 84 231 274 323 28 108 232 295 279 271 326 324 297 300 294 278 279 281 272 270 275 281 285
150 165 167 173 178 181 185 189 191 195 201 211 221 227 239 265 295 329 65 74 345 331 9 355 10 14 11 29 38 66 52 1 22 2 13 42 39 64 97 111 146 159 113 124 95 288 195 14 13 54 59 65 213 229 188 159 102 281 197 136 158 167 170 157 99 97 351 360 320 320 96 235 274 269 296 346 305 290 288 279 278 284 283 273 273 283 291 293
84 109 130 146 164 176 182 183 184 192 205 219 223 222 232 256 275 21 80 97 321 342 9 345 352 351 351 32 35 38 42 30 32 356 10 52 33 50 90 108 124 119 57 117 150 217 171 98 182 126 90 232 236 228 185 173 327 193 148 101 68 79 83 81 90 112 42 18 268 258 134 237 275 278 307 327 252 263 268 267 270 280 286 273 277 296 302 302
65 85 108 130 149 158 167 167 166 181 198 204 199 199 199 161 87 61 55 173 333 336 330 350 345 341 354 24 19 18 32 24 10 5 28 58 47 58 90 87 72 90 16 32 98 215 261 128 206 151 168 224 193 162 160 137 112 128 120 70 51 36 43 63 64 94 62 316 260 261 273 85 295 283 265 235 228 229 245 276 280 284 293 278 281 306 309 307
52 74 100 121 144 155 159 155 152 156 171 179 177 171 155 80 66 88 89 258 311 335 350 10 355 1 19 55 6 354 10 8 5 16 29 37 35 36 56 54 19 42 15 6 10 305 358 69 248 224 229 247 127 107 44 67 110 115 89 55 48 347 8 29 357 42 75 273 260 272 297 146 243 267 252 243 259 239 225 258 268 277 291 282 285 308 309 306
47 62 83 113 138 156 162 162 153 135 133 157 162 158 142 36 24 99 252 315 330 326 8 360 324 26 38 47 14 334 339 357 5 33 43 19 37 25 28 83 42 29 5 323 319 331 320 207 278 257 210 17 85 94 6 4 30 60 56 50 44 350 3 9 330 360 227 249 239 264 311 252 231 251 259 264 272 260 235 240 246 262 283 283 286 302 305 305
49 55 63 96 124 136 147 166 170 148 124 144 154 140 84 74 39 210 262 323 8 322 344 260 312 17 47 29 9 327 336 356 354 26 54 50 66 32 349 152 141 59 347 283 338 355 335 292 336 61 137 16 63 93 358 323 3 40 77 74 72 54 24 324 288 315 285 269 272 303 300 280 276 266 245 241 258 266 260 256 260 272 281 280 283 295 302 305
50 53 56 76 97 116 127 148 178 179 161 144 144 97 59 74 192 186 262 271 299 354 356 301 333 10 53 49 348 315 35 6 344 17 9 29 54 15 336 334 14 73 93 75 51 40 22 305 318 57 319 354 50 113 124 130 70 49 163 121 116 141 128 266 247 246 284 291 296 305 255 212 250 274 241 238 264 278 281 277 275 278 277 274 278 289 300 306
55 55 59 68 76 93 110 132 164 164 171 157 107 64 81 161 233 161 234 263 297 353 308 330 46 46 15 354 327 357 77 308 348 41 21 32 84 46 335 311 344 62 100 45 307 124 63 265 269 340 349 31 52 192 91 92 90 245 169 100 76 172 149 180 203 190 244 312 292 272 237 212 226 276 280 287 289 287 288 282 276 278 276 271 275 288 303 307
57 52 58 65 66 71 79 129 157 142 159 152 75 50 135 197 216 162 222 307 340 299 293 333 39 54 354 324 337 13 55 309 347 34 16 37 143 209 265 263 294 79 115 109 230 160 30 284 287 5 32 55 53 274 51 64 145 116 105 160 234 162 122 110 244 359 71 3 281 269 267 282 320 295 297 340 334 311 318 303 290 289 281 272 277 293 307 308
54 46 46 50 52 55 68 108 148 159 166 122 78 85 201 210 175 193 326 347 278 99 79 360 355 45 322 301 320 328 344 325 347 26 4 9 180 196 222 264 218 141 151 153 214 198 138 284 300 18 93 25 42 83 56 52 99 95 168 211 200 110 91 99 320 348 37 282 276 301 275 291 348 307 311 351 338 309 312 307 305 298 281 272 281 298 310 309
47 40 37 37 40 44 58 88 120 152 150 83 80 141 184 76 241 274 357 22 320 42 75 116 294 47 165 268 308 300 325 344 356 28 49 317 289 165 154 284 215 303 334 132 149 99 118 292 304 305 169 318 6 97 39 21 44 84 161 159 117 140 212 59 101 324 358 298 289 303 293 276 218 234 286 312 300 292 296 300 304 292 277 277 288 301 311 313
13 30 28 25 35 44 48 83 121 135 105 71 94 166 102 130 303 32 48 22 8 50 67 164 313 45 161 177 275 295 340 14 2 29 84 351 317 197 169 192 200 266 346 106 146 203 93 85 288 279 219 313 356 113 235 333 32 56 85 57 29 142 169 180 131 161 203 271 286 315 327 281 229 212 222 265 278 282 285 290 284 278 282 288 296 305 313 315
30 53 22 17 33 48 54 86 93 82 72 84 157 170 18 194 174 119 108 45 66 76 68 188 142 59 219 214 230 279 357 66 154 115 299 253 269 248 211 157 173 148 10 39 117 119 63 105 255 290 323 318 294 221 198 183 147 95 82 309 320 91 158 221 83 132 143 173 234 304 312 277 256 206 201 251 272 267 261 265 270 282 294 301 304 309 313 315
69 61 10 11 30 47 70 78 58 60 80 93 146 130 11 167 141 136 134 109 100 86 131 166 148 139 196 220 236 221 298 4 158 197 272 233 202 299 359 136 160 142 94 53 91 111 58 147 219 293 324 274 247 250 207 182 170 162 178 195 181 144 131 129 301 301 108 157 189 178 287 277 267 184 203 241 252 257 260 255 268 289 301 307 311 314 315 315
67 59 4 11 35 57 82 73 39 46 98 80 74 98 115 146 122 112 128 124 87 59 91 138 136 143 166 177 204 184 174 298 232 202 249 223 214 261 192 140 146 150 130 106 272 231 145 108 158 274 268 250 267 307 344 207 162 141 179 183 144 128 126 142 232 260 181 177 168 112 270 272 259 182 197 229 235 262 279 277 280 294 304 309 313 316 317 316
64 56 16 17 48 66 71 69 25 26 68 75 82 89 89 113 98 85 87 53 35 39 43 59 124 107 187 202 133 157 198 220 197 187 239 235 249 291 211 161 145 147 124 78 297 121 112 81 14 282 285 305 315 336 6 20 79 147 244 148 138 149 137 150 177 185 199 208 157 94 266 269 268 203 203 245 263 278 290 294 292 298 306 310 312 315 316 316
67 56 38 32 46 74 72 93 99 57 42 70 75 54 43 57 55 43 7 6 21 32 40 29 71 71 46 71 86 145 210 247 239 221 221 218 252 317 247 169 140 114 120 171 136 95 241 235 47 334 328 338 342 349 348 339 286 222 242 191 150 120 101 116 146 115 260 218 168 154 252 261 270 282 243 268 287 292 295 301 302 301 305 310 312 313 315 314
66 58 46 44 57 80 80 86 123 125 122 84 68 29 18 50 42 26 26 44 31 30 49 18 18 67 54 49 48 21 28 22 309 332 13 267 255 301 216 201 192 171 206 188 155 137 204 216 126 94 313 304 303 307 297 268 252 246 228 203 199 140 129 152 136 117 242 235 162 172 237 265 287 300 294 289 297 299 300 307 309 305 304 307 309 311 312 312
59 52 34 39 53 67 68 62 78 112 133 105 76 15 25 61 20 17 46 62 32 39 71 39 46 77 48 35 27 335 326 15 16 348 326 264 263 288 226 209 201 208 204 165 161 134 93 238 208 188 201 223 244 256 253 113 266 270 264 230 207 184 152 127 110 175 202 179 199 227 238 273 289 289 292 300 305 303 304 308 308 307 306 306 307 308 309 309
61 40 359 20 40 51 55 46 46 67 110 114 94 24 8 346 321 1 45 58 33 27 50 93 99 125 114 25 16 288 274 337 13 249 240 239 258 290 249 215 214 226 184 154 176 129 84 281 239 204 222 238 250 264 294 25 275 266 272 255 209 182 157 153 194 214 160 128 263 251 222 244 272 277 286 294 298 302 304 305 305 305 304 304 305 306 307 308
70 72 50 56 44 28 38 29 32 51 59 65 96 63 3 359 355 357 355 2 24 23 11 4 348 268 203 188 96 277 297 337 314 250 245 250 283 334 323 246 207 226 160 138 193 129 118 262 247 197 249 264 272 280 288 278 267 265 266 263 238 182 178 195 220 214 158 197 256 260 237 250 269 278 283 284 289 294 295 297 300 301 301 303 305 306 306 308
78 85 67 72 85 88 58 13 18 50 50 48 75 53 28 26 3 329 266 349 360 15 34 350 323 332 291 243 67 301 279 337 318 285 262 262 292 334 321 290 153 95 52 92 304 65 137 257 279 36 290 283 276 283 281 240 266 279 265 257 228 194 203 213 231 226 194 234 256 266 280 282 275 273 276 282 288 289 289 292 297 299 303 305 306 306 306 309
71 77 77 86 80 54 39 24 21 55 43 32 50 37 49 87 353 313 272 98 342 344 45 334 307 324 307 189 67 241 234 226 289 279 218 101 305 243 230 267 132 90 27 66 3 25 142 265 339 63 317 291 284 313 335 212 235 269 276 267 218 205 225 227 239 236 216 248 261 269 281 279 272 274 278 281 284 286 288 292 297 302 307 307 306 307 308 309
63 67 75 86 64 17 18 22 35 73 44 14 40 14 301 144 209 287 271 188 201 245 223 219 287 304 77 64 269 255 262 265 266 267 248 236 255 226 225 258 138 120 91 126 11 94 142 283 358 55 341 292 295 348 332 286 246 260 279 278 235 199 216 221 228 207 194 226 257 276 270 262 271 288 298 289 285 287 288 291 299 307 311 309 304 305 308 310
54 58 64 79 66 10 16 17 27 63 58 317 278 234 287 247 211 295 329 244 205 243 263 247 249 297 333 320 277 272 294 297 283 285 277 259 258 253 255 265 194 144 158 157 141 138 141 124 9 34 327 275 290 325 317 317 332 296 268 248 204 208 219 224 245 224 204 200 199 233 245 262 290 307 307 299 296 295 292 294 304 310 309 308 304 303 307 311